Location: *
(55.6049°S, 142.1985°W)
Time: 15:20:00
(UTC+00:00)

SL-19 R/B - Pass Details

Date: 12 May 2021
Orbit: 357 x 803 km, 99.4° (Epoch: 17 June)

Event Time Altitude Azimuth Distance (km) Brightness Sun altitude
Rises 15:57:11 0° 15° (NNE) 2,208 7.9 -10.6°
Reaches altitude 10° 15:59:04 10° 13° (NNE) 1,374 6.8 -10.4°
Maximum altitude 16:01:56 73° 288° (WNW) 408 3.5 -10.0°
Drops below altitude 10° 16:05:02 10° 201° (SSW) 1,476 6.1 -9.6°
Enters shadow 16:06:24 - 199° (SSW) 2,082 6.9 -9.4°
